Year,Month,Day,Hour,Minute,Value (Times are PST for temperature in C)
2010,12,14,00,00,9.40
2010,12,14,00,01,9.40
2010,12,14,00,02,9.40
2010,12,14,00,03,9.40
2010,12,14,00,04,9.40
2010,12,14,00,05,9.40
2010,12,14,00,06,9.40
2010,12,14,00,07,9.40
2010,12,14,00,08,9.50
2010,12,14,00,09,9.50
2010,12,14,00,10,9.50
2010,12,14,00,11,9.50
2010,12,14,00,12,9.50
2010,12,14,00,13,9.50
2010,12,14,00,14,9.50
2010,12,14,00,15,9.40
2010,12,14,00,16,9.50
2010,12,14,00,17,9.40
2010,12,14,00,18,9.40
2010,12,14,00,19,9.40
2010,12,14,00,20,9.40
2010,12,14,00,21,9.40
2010,12,14,00,22,9.30
2010,12,14,00,23,9.20
2010,12,14,00,24,9.00
2010,12,14,00,25,8.90
2010,12,14,00,26,8.70
2010,12,14,00,27,8.60
2010,12,14,00,28,8.40
2010,12,14,00,29,8.20
2010,12,14,00,30,8.10
2010,12,14,00,31,7.90
2010,12,14,00,32,7.80
2010,12,14,00,33,7.80
2010,12,14,00,34,7.70
2010,12,14,00,35,7.60
2010,12,14,00,36,7.60
2010,12,14,00,37,7.50
2010,12,14,00,38,7.50
2010,12,14,00,39,7.50
2010,12,14,00,40,7.40
2010,12,14,00,41,7.40
2010,12,14,00,42,7.40
2010,12,14,00,43,7.30
2010,12,14,00,44,7.30
2010,12,14,00,45,7.30
2010,12,14,00,46,7.30
2010,12,14,00,47,7.30
2010,12,14,00,48,7.30
2010,12,14,00,49,7.20
2010,12,14,00,50,7.20
2010,12,14,00,51,7.20
2010,12,14,00,52,7.20
2010,12,14,00,53,7.20
2010,12,14,00,54,7.10
2010,12,14,00,55,7.10
2010,12,14,00,56,7.10
2010,12,14,00,57,7.10
2010,12,14,00,58,7.00
2010,12,14,00,59,7.00
2010,12,14,01,00,6.90
2010,12,14,01,01,6.90
2010,12,14,01,02,6.90
2010,12,14,01,03,6.90
2010,12,14,01,04,6.80
2010,12,14,01,05,6.80
2010,12,14,01,06,6.80
2010,12,14,01,07,6.80
2010,12,14,01,08,6.70
2010,12,14,01,09,6.70
2010,12,14,01,10,6.70
2010,12,14,01,11,6.70
2010,12,14,01,12,6.70
2010,12,14,01,13,6.60
2010,12,14,01,14,6.60
2010,12,14,01,15,6.60
2010,12,14,01,16,6.50
2010,12,14,01,17,6.50
2010,12,14,01,18,6.40
2010,12,14,01,19,6.40
2010,12,14,01,20,6.40
2010,12,14,01,21,6.30
2010,12,14,01,22,6.30
2010,12,14,01,23,6.30
2010,12,14,01,24,6.30
2010,12,14,01,25,6.30
2010,12,14,01,26,6.20
2010,12,14,01,27,6.20
2010,12,14,01,28,6.20
2010,12,14,01,29,6.20
2010,12,14,01,30,6.20
2010,12,14,01,31,6.20
2010,12,14,01,32,6.20
2010,12,14,01,33,6.20
2010,12,14,01,34,6.20
2010,12,14,01,35,6.20
2010,12,14,01,36,6.20
2010,12,14,01,37,6.20
2010,12,14,01,38,6.20
2010,12,14,01,39,6.20
2010,12,14,01,40,6.20
2010,12,14,01,41,6.20
2010,12,14,01,42,6.20
2010,12,14,01,43,6.30
2010,12,14,01,44,6.30
2010,12,14,01,45,6.30
2010,12,14,01,46,6.30
2010,12,14,01,47,6.30
2010,12,14,01,48,6.30
2010,12,14,01,49,6.30
2010,12,14,01,50,6.30
2010,12,14,01,51,6.40
2010,12,14,01,52,6.40
2010,12,14,01,53,6.40
2010,12,14,01,54,6.40
2010,12,14,01,55,6.40
2010,12,14,01,56,6.40
2010,12,14,01,57,6.40
2010,12,14,01,58,6.40
2010,12,14,01,59,6.50
2010,12,14,02,00,6.50
2010,12,14,02,01,6.50
2010,12,14,02,02,6.50
2010,12,14,02,03,6.50
2010,12,14,02,04,6.50
2010,12,14,02,05,6.50
2010,12,14,02,06,6.50
2010,12,14,02,07,6.50
2010,12,14,02,08,6.50
2010,12,14,02,09,6.50
2010,12,14,02,10,6.50
2010,12,14,02,11,6.50
2010,12,14,02,12,6.50
2010,12,14,02,13,6.50
2010,12,14,02,14,6.50
2010,12,14,02,15,6.50
2010,12,14,02,16,6.50
2010,12,14,02,17,6.50
2010,12,14,02,18,6.50
2010,12,14,02,19,6.50
2010,12,14,02,20,6.50
2010,12,14,02,21,6.50
2010,12,14,02,22,6.50
2010,12,14,02,23,6.50
2010,12,14,02,24,6.50
2010,12,14,02,25,6.50
2010,12,14,02,26,6.50
2010,12,14,02,27,6.50
2010,12,14,02,28,6.60
2010,12,14,02,29,6.60
2010,12,14,02,30,6.60
2010,12,14,02,31,6.60
2010,12,14,02,32,6.60
2010,12,14,02,33,6.70
2010,12,14,02,34,6.70
2010,12,14,02,35,6.70
2010,12,14,02,36,6.70
2010,12,14,02,37,6.70
2010,12,14,02,38,6.70
2010,12,14,02,39,6.80
2010,12,14,02,40,6.80
2010,12,14,02,41,6.90
2010,12,14,02,42,6.90
2010,12,14,02,43,7.00
2010,12,14,02,44,7.00
2010,12,14,02,45,7.00
2010,12,14,02,46,7.10
2010,12,14,02,47,7.10
2010,12,14,02,48,7.10
2010,12,14,02,49,7.10
2010,12,14,02,50,7.10
2010,12,14,02,51,7.10
2010,12,14,02,52,7.10
2010,12,14,02,53,7.10
2010,12,14,02,54,7.10
2010,12,14,02,55,7.10
2010,12,14,02,56,7.10
2010,12,14,02,57,7.10
2010,12,14,02,58,7.10
2010,12,14,02,59,7.00
2010,12,14,03,00,7.10
2010,12,14,03,01,7.10
2010,12,14,03,02,7.10
2010,12,14,03,03,7.10
2010,12,14,03,04,7.20
2010,12,14,03,05,7.20
2010,12,14,03,06,7.20
2010,12,14,03,07,7.30
2010,12,14,03,08,7.30
2010,12,14,03,09,7.30
2010,12,14,03,10,7.30
2010,12,14,03,11,7.30
2010,12,14,03,12,7.40
2010,12,14,03,13,7.40
2010,12,14,03,14,7.40
2010,12,14,03,15,7.40
2010,12,14,03,16,7.40
2010,12,14,03,17,7.40
2010,12,14,03,18,7.40
2010,12,14,03,19,7.50
2010,12,14,03,20,7.50
2010,12,14,03,21,7.50
2010,12,14,03,22,7.50
2010,12,14,03,23,7.50
2010,12,14,03,24,7.50
2010,12,14,03,25,7.50
2010,12,14,03,26,7.50
2010,12,14,03,27,7.50
2010,12,14,03,28,7.50
2010,12,14,03,29,7.50
2010,12,14,03,30,7.50
2010,12,14,03,31,7.50
2010,12,14,03,32,7.50
2010,12,14,03,33,7.50
2010,12,14,03,34,7.50
2010,12,14,03,35,7.50
2010,12,14,03,36,7.50
2010,12,14,03,37,7.50
2010,12,14,03,38,7.50
2010,12,14,03,39,7.50
2010,12,14,03,40,7.60
2010,12,14,03,41,7.60
2010,12,14,03,42,7.60
2010,12,14,03,43,7.50
2010,12,14,03,44,7.50
2010,12,14,03,45,7.50
2010,12,14,03,46,7.50
2010,12,14,03,47,7.50
2010,12,14,03,48,7.50
2010,12,14,03,49,7.40
2010,12,14,03,50,7.40
2010,12,14,03,51,7.40
2010,12,14,03,52,7.40
2010,12,14,03,53,7.40
2010,12,14,03,54,7.40
2010,12,14,03,55,7.30
2010,12,14,03,56,7.30
2010,12,14,03,57,7.30
2010,12,14,03,58,7.30
2010,12,14,03,59,7.30
2010,12,14,04,00,7.30
2010,12,14,04,01,7.30
2010,12,14,04,02,7.30
2010,12,14,04,03,7.20
2010,12,14,04,04,7.20
2010,12,14,04,05,7.20
2010,12,14,04,06,7.20
2010,12,14,04,07,7.20
2010,12,14,04,08,7.20
2010,12,14,04,09,7.10
2010,12,14,04,10,7.10
2010,12,14,04,11,7.10
2010,12,14,04,12,7.10
2010,12,14,04,13,7.10
2010,12,14,04,14,7.10
2010,12,14,04,15,7.10
2010,12,14,04,16,7.10
2010,12,14,04,17,7.10
2010,12,14,04,18,7.10
2010,12,14,04,19,7.10
2010,12,14,04,20,7.10
2010,12,14,04,21,7.10
2010,12,14,04,22,7.10
2010,12,14,04,23,7.20
2010,12,14,04,24,7.20
2010,12,14,04,25,7.20
2010,12,14,04,26,7.20
2010,12,14,04,27,7.20
2010,12,14,04,28,7.20
2010,12,14,04,29,7.20
2010,12,14,04,30,7.30
2010,12,14,04,31,7.30
2010,12,14,04,32,7.30
2010,12,14,04,33,7.30
2010,12,14,04,34,7.30
2010,12,14,04,35,7.40
2010,12,14,04,36,7.40
2010,12,14,04,37,7.40
2010,12,14,04,38,7.40
2010,12,14,04,39,7.40
2010,12,14,04,40,7.50
2010,12,14,04,41,7.50
2010,12,14,04,42,7.50
2010,12,14,04,43,7.60
2010,12,14,04,44,7.60
2010,12,14,04,45,7.60
2010,12,14,04,46,7.60
2010,12,14,04,47,7.60
2010,12,14,04,48,7.70
2010,12,14,04,49,7.70
2010,12,14,04,50,7.70
2010,12,14,04,51,7.70
2010,12,14,04,52,7.70
2010,12,14,04,53,7.70
2010,12,14,04,54,7.70
2010,12,14,04,55,7.70
2010,12,14,04,56,7.70
2010,12,14,04,57,7.60
2010,12,14,04,58,7.60
2010,12,14,04,59,7.60
2010,12,14,05,00,7.60
2010,12,14,05,01,7.60
2010,12,14,05,02,7.60
2010,12,14,05,03,7.60
2010,12,14,05,04,7.60
2010,12,14,05,05,7.60
2010,12,14,05,06,7.60
2010,12,14,05,07,7.60
2010,12,14,05,08,7.60
2010,12,14,05,09,7.60
2010,12,14,05,10,7.60
2010,12,14,05,11,7.60
2010,12,14,05,12,7.60
2010,12,14,05,13,7.50
2010,12,14,05,14,7.50
2010,12,14,05,15,7.50
2010,12,14,05,16,7.50
2010,12,14,05,17,7.50
2010,12,14,05,18,7.50
2010,12,14,05,19,7.40
2010,12,14,05,20,7.40
2010,12,14,05,21,7.40
2010,12,14,05,22,7.40
2010,12,14,05,23,7.40
2010,12,14,05,24,7.40
2010,12,14,05,25,7.40
2010,12,14,05,26,7.40
2010,12,14,05,27,7.30
2010,12,14,05,28,7.30
2010,12,14,05,29,7.20
2010,12,14,05,30,7.10
2010,12,14,05,31,7.00
2010,12,14,05,32,6.90
2010,12,14,05,33,6.80
2010,12,14,05,34,6.60
2010,12,14,05,35,6.40
2010,12,14,05,36,6.20
2010,12,14,05,37,6.00
2010,12,14,05,38,5.90
2010,12,14,05,39,5.70
2010,12,14,05,40,5.60
2010,12,14,05,41,5.50
2010,12,14,05,42,5.40
2010,12,14,05,43,5.30
2010,12,14,05,44,5.30
2010,12,14,05,45,5.20
2010,12,14,05,46,5.20
2010,12,14,05,47,5.10
2010,12,14,05,48,5.10
2010,12,14,05,49,5.10
2010,12,14,05,50,5.10
2010,12,14,05,51,5.00
2010,12,14,05,52,5.00
2010,12,14,05,53,4.90
2010,12,14,05,54,4.90
2010,12,14,05,55,4.90
2010,12,14,05,56,4.90
2010,12,14,05,57,4.90
2010,12,14,05,58,4.80
2010,12,14,05,59,4.90
2010,12,14,06,00,4.80
2010,12,14,06,01,4.90
2010,12,14,06,02,4.90
2010,12,14,06,03,4.90
2010,12,14,06,04,4.90
2010,12,14,06,05,4.90
2010,12,14,06,06,4.90
2010,12,14,06,07,4.90
2010,12,14,06,08,4.90
2010,12,14,06,09,4.90
2010,12,14,06,10,4.90
2010,12,14,06,11,4.90
2010,12,14,06,12,4.90
2010,12,14,06,13,4.90
2010,12,14,06,14,4.90
2010,12,14,06,15,4.90
2010,12,14,06,16,4.90
2010,12,14,06,17,4.90
2010,12,14,06,18,4.90
2010,12,14,06,19,4.90
2010,12,14,06,20,4.90
2010,12,14,06,21,4.90
2010,12,14,06,22,4.90
2010,12,14,06,23,4.90
2010,12,14,06,24,4.90
2010,12,14,06,25,5.00
2010,12,14,06,26,5.00
2010,12,14,06,27,5.00
2010,12,14,06,28,5.00
2010,12,14,06,29,5.10
2010,12,14,06,30,5.10
2010,12,14,06,31,5.10
2010,12,14,06,32,5.10
2010,12,14,06,33,5.10
2010,12,14,06,34,5.10
2010,12,14,06,35,5.10
2010,12,14,06,36,5.10
2010,12,14,06,37,5.10
2010,12,14,06,38,5.10
2010,12,14,06,39,5.10
2010,12,14,06,40,5.00
2010,12,14,06,41,5.00
2010,12,14,06,42,5.00
2010,12,14,06,43,5.00
2010,12,14,06,44,4.90
2010,12,14,06,45,4.90
2010,12,14,06,46,4.90
2010,12,14,06,47,4.90
2010,12,14,06,48,4.90
2010,12,14,06,49,4.90
2010,12,14,06,50,4.90
2010,12,14,06,51,4.90
2010,12,14,06,52,4.90
2010,12,14,06,53,4.90
2010,12,14,06,54,4.90
2010,12,14,06,55,4.80
2010,12,14,06,56,4.80
2010,12,14,06,57,4.80
2010,12,14,06,58,4.80
2010,12,14,06,59,4.80
2010,12,14,07,00,4.80
2010,12,14,07,01,4.80
2010,12,14,07,02,4.70
2010,12,14,07,03,4.70
2010,12,14,07,04,4.70
2010,12,14,07,05,4.70
2010,12,14,07,06,4.70
2010,12,14,07,07,4.70
2010,12,14,07,08,4.70
2010,12,14,07,09,4.60
2010,12,14,07,10,4.60
2010,12,14,07,11,4.60
2010,12,14,07,12,4.60
2010,12,14,07,13,4.60
2010,12,14,07,14,4.60
2010,12,14,07,15,4.60
2010,12,14,07,16,4.60
2010,12,14,07,17,4.60
2010,12,14,07,18,4.60
2010,12,14,07,19,4.50
2010,12,14,07,20,4.50
2010,12,14,07,21,4.50
2010,12,14,07,22,4.50
2010,12,14,07,23,4.50
2010,12,14,07,24,4.50
2010,12,14,07,25,4.50
2010,12,14,07,26,4.50
2010,12,14,07,27,4.40
2010,12,14,07,28,4.40
2010,12,14,07,29,4.40
2010,12,14,07,30,4.40
2010,12,14,07,31,4.40
2010,12,14,07,32,4.40
2010,12,14,07,33,4.40
2010,12,14,07,34,4.40
2010,12,14,07,35,4.40
2010,12,14,07,36,4.30
2010,12,14,07,37,4.30
2010,12,14,07,38,4.30
2010,12,14,07,39,4.30
2010,12,14,07,40,4.30
2010,12,14,07,41,4.30
2010,12,14,07,42,4.30
2010,12,14,07,43,4.30
2010,12,14,07,44,4.30
2010,12,14,07,45,4.30
2010,12,14,07,46,4.30
2010,12,14,07,47,4.30
2010,12,14,07,48,4.30
2010,12,14,07,49,4.30
2010,12,14,07,50,4.30
2010,12,14,07,51,4.30
2010,12,14,07,52,4.30
2010,12,14,07,53,4.30
2010,12,14,07,54,4.30
2010,12,14,07,55,4.30
2010,12,14,07,56,4.30
2010,12,14,07,57,4.30
2010,12,14,07,58,4.30
2010,12,14,07,59,4.40
2010,12,14,08,00,4.40
2010,12,14,08,01,4.40
2010,12,14,08,02,4.40
2010,12,14,08,03,4.40
2010,12,14,08,04,4.40
2010,12,14,08,05,4.40
2010,12,14,08,06,4.40
2010,12,14,08,07,4.40
2010,12,14,08,08,4.40
2010,12,14,08,09,4.50
2010,12,14,08,10,4.50
2010,12,14,08,11,4.50
2010,12,14,08,12,4.50
2010,12,14,08,13,4.60
2010,12,14,08,14,4.60
2010,12,14,08,15,4.60
2010,12,14,08,16,4.60
2010,12,14,08,17,4.60
2010,12,14,08,18,4.70
2010,12,14,08,19,4.70
2010,12,14,08,20,4.70
2010,12,14,08,21,4.70
2010,12,14,08,22,4.80
2010,12,14,08,23,4.80
2010,12,14,08,24,4.80
2010,12,14,08,25,4.80
2010,12,14,08,26,4.90
2010,12,14,08,27,4.90
2010,12,14,08,28,4.90
2010,12,14,08,29,4.90
2010,12,14,08,30,4.90
2010,12,14,08,31,4.90
2010,12,14,08,32,4.90
2010,12,14,08,33,5.00
2010,12,14,08,34,5.00
2010,12,14,08,35,5.00
2010,12,14,08,36,5.10
2010,12,14,08,37,5.00
2010,12,14,08,38,5.10
2010,12,14,08,39,5.10
2010,12,14,08,40,5.10
2010,12,14,08,41,5.10
2010,12,14,08,42,5.10
2010,12,14,08,43,5.10
2010,12,14,08,44,5.10
2010,12,14,08,45,5.10
2010,12,14,08,46,5.10
2010,12,14,08,47,5.10
2010,12,14,08,48,5.10
2010,12,14,08,49,5.10
2010,12,14,08,50,5.10
2010,12,14,08,51,5.10
2010,12,14,08,52,5.10
2010,12,14,08,53,5.10
2010,12,14,08,54,5.10
2010,12,14,08,55,5.00
2010,12,14,08,56,5.00
2010,12,14,08,57,5.00
2010,12,14,08,58,5.00
2010,12,14,08,59,4.90
2010,12,14,09,00,4.90
2010,12,14,09,01,4.90
2010,12,14,09,02,4.90
2010,12,14,09,03,4.90
2010,12,14,09,04,4.90
2010,12,14,09,05,4.90
2010,12,14,09,06,4.80
2010,12,14,09,07,4.80
2010,12,14,09,08,4.80
2010,12,14,09,09,4.80
2010,12,14,09,10,4.80
2010,12,14,09,11,4.80
2010,12,14,09,12,4.80
2010,12,14,09,13,4.80
2010,12,14,09,14,4.90
2010,12,14,09,15,4.90
2010,12,14,09,16,4.90
2010,12,14,09,17,5.00
2010,12,14,09,18,5.00
2010,12,14,09,19,5.10
2010,12,14,09,20,5.10
2010,12,14,09,21,5.10
2010,12,14,09,22,5.20
2010,12,14,09,23,5.20
2010,12,14,09,24,5.20
2010,12,14,09,25,5.20
2010,12,14,09,26,5.30
2010,12,14,09,27,5.30
2010,12,14,09,28,5.30
2010,12,14,09,29,5.40
2010,12,14,09,30,5.40
2010,12,14,09,31,5.40
2010,12,14,09,32,5.50
2010,12,14,09,33,5.50
2010,12,14,09,34,5.50
2010,12,14,09,35,5.60
2010,12,14,09,36,5.60
2010,12,14,09,37,5.60
2010,12,14,09,38,5.60
2010,12,14,09,39,5.60
2010,12,14,09,40,5.70
2010,12,14,09,41,5.70
2010,12,14,09,42,5.70
2010,12,14,09,43,5.70
2010,12,14,09,44,5.70
2010,12,14,09,45,5.70
2010,12,14,09,46,5.70
2010,12,14,09,47,5.70
2010,12,14,09,48,5.70
2010,12,14,09,49,5.70
2010,12,14,09,50,5.70
2010,12,14,09,51,5.70
2010,12,14,09,52,5.80
2010,12,14,09,53,5.80
2010,12,14,09,54,5.80
2010,12,14,09,55,5.70
2010,12,14,09,56,5.80
2010,12,14,09,57,5.80
2010,12,14,09,58,5.80
2010,12,14,09,59,5.80
2010,12,14,10,00,5.80
2010,12,14,10,01,5.70
2010,12,14,10,02,5.70
2010,12,14,10,03,5.70
2010,12,14,10,04,5.70
2010,12,14,10,05,5.70
2010,12,14,10,06,5.70
2010,12,14,10,07,5.70
2010,12,14,10,08,5.70
2010,12,14,10,09,5.70
2010,12,14,10,10,5.70
2010,12,14,10,11,5.70
2010,12,14,10,12,5.70
2010,12,14,10,13,5.70
2010,12,14,10,14,5.70
2010,12,14,10,15,5.70
2010,12,14,10,16,5.70
2010,12,14,10,17,5.70
2010,12,14,10,18,5.70
2010,12,14,10,19,5.70
2010,12,14,10,20,5.70
2010,12,14,10,21,5.70
2010,12,14,10,22,5.70
2010,12,14,10,23,5.80
2010,12,14,10,24,5.80
2010,12,14,10,25,5.80
2010,12,14,10,26,5.80
2010,12,14,10,27,5.80
2010,12,14,10,28,5.90
2010,12,14,10,29,5.90
2010,12,14,10,30,5.90
2010,12,14,10,31,5.90
2010,12,14,10,32,5.90
2010,12,14,10,33,5.90
2010,12,14,10,34,5.90
2010,12,14,10,35,5.90
2010,12,14,10,36,5.90
2010,12,14,10,37,5.90
2010,12,14,10,38,5.90
2010,12,14,10,39,6.00
2010,12,14,10,40,6.00
2010,12,14,10,41,6.00
2010,12,14,10,42,6.00
2010,12,14,10,43,6.00
2010,12,14,10,44,6.00
2010,12,14,10,45,6.00
2010,12,14,10,46,6.00
2010,12,14,10,47,6.00
2010,12,14,10,48,6.00
2010,12,14,10,49,6.00
2010,12,14,10,50,6.00
2010,12,14,10,51,6.00
2010,12,14,10,52,6.00
2010,12,14,10,53,6.00
2010,12,14,10,54,6.00
2010,12,14,10,55,5.90
2010,12,14,10,56,5.90
2010,12,14,10,57,5.90
2010,12,14,10,58,5.90
2010,12,14,10,59,5.80
2010,12,14,11,00,5.80
2010,12,14,11,01,5.80
2010,12,14,11,02,5.80
2010,12,14,11,03,5.80
2010,12,14,11,04,5.80
2010,12,14,11,05,5.70
2010,12,14,11,06,5.70
2010,12,14,11,07,5.70
2010,12,14,11,08,5.70
2010,12,14,11,09,5.70
2010,12,14,11,10,5.70
2010,12,14,11,11,5.70
2010,12,14,11,12,5.70
2010,12,14,11,13,5.70
2010,12,14,11,14,5.70
2010,12,14,11,15,5.70
2010,12,14,11,16,5.70
2010,12,14,11,17,5.70
2010,12,14,11,18,5.70
2010,12,14,11,19,5.70
2010,12,14,11,20,5.70
2010,12,14,11,21,5.70
2010,12,14,11,22,5.70
2010,12,14,11,23,5.70
2010,12,14,11,24,5.80
2010,12,14,11,25,5.80
2010,12,14,11,26,5.80
2010,12,14,11,27,5.80
2010,12,14,11,28,5.80
2010,12,14,11,29,5.80
2010,12,14,11,30,5.80
2010,12,14,11,31,5.80
2010,12,14,11,32,5.80
2010,12,14,11,33,5.80
2010,12,14,11,34,5.80
2010,12,14,11,35,5.80
2010,12,14,11,36,5.80
2010,12,14,11,37,5.80
2010,12,14,11,38,5.80
2010,12,14,11,39,5.80
2010,12,14,11,40,5.80
2010,12,14,11,41,5.80
2010,12,14,11,42,5.80
2010,12,14,11,43,5.80
2010,12,14,11,44,5.80
2010,12,14,11,45,5.80
2010,12,14,11,46,5.80
2010,12,14,11,47,5.80
2010,12,14,11,48,5.80
2010,12,14,11,49,5.80
2010,12,14,11,50,5.80
2010,12,14,11,51,5.80
2010,12,14,11,52,5.80
2010,12,14,11,53,5.80
2010,12,14,11,54,5.80
2010,12,14,11,55,5.80
2010,12,14,11,56,5.80
2010,12,14,11,57,5.80
2010,12,14,11,58,5.80
2010,12,14,11,59,5.80
2010,12,14,12,00,5.80
2010,12,14,12,01,5.80
2010,12,14,12,02,5.80
2010,12,14,12,03,5.80
2010,12,14,12,04,5.80
2010,12,14,12,05,5.80
2010,12,14,12,06,5.80
2010,12,14,12,07,5.80
2010,12,14,12,08,5.80
2010,12,14,12,09,5.80
2010,12,14,12,10,5.80
2010,12,14,12,11,5.80
2010,12,14,12,12,5.80
2010,12,14,12,13,5.70
2010,12,14,12,14,5.70
2010,12,14,12,15,5.70
2010,12,14,12,16,5.60
2010,12,14,12,17,5.60
2010,12,14,12,18,5.60
2010,12,14,12,19,5.50
2010,12,14,12,20,5.50
2010,12,14,12,21,5.40
2010,12,14,12,22,5.40
2010,12,14,12,23,5.30
2010,12,14,12,24,5.30
2010,12,14,12,25,5.30
2010,12,14,12,26,5.30
2010,12,14,12,27,5.20
2010,12,14,12,28,5.20
2010,12,14,12,29,5.10
2010,12,14,12,30,5.10
2010,12,14,12,31,5.00
2010,12,14,12,32,4.90
2010,12,14,12,33,4.90
2010,12,14,12,34,4.80
2010,12,14,12,35,4.80
2010,12,14,12,36,4.80
2010,12,14,12,37,4.70
2010,12,14,12,38,4.70
2010,12,14,12,39,4.60
2010,12,14,12,40,4.50
2010,12,14,12,41,4.30
2010,12,14,12,42,4.20
2010,12,14,12,43,4.00
2010,12,14,12,44,3.90
2010,12,14,12,45,3.70
2010,12,14,12,46,3.60
2010,12,14,12,47,3.50
2010,12,14,12,48,3.40
2010,12,14,12,49,3.40
2010,12,14,12,50,3.30
2010,12,14,12,51,3.30
2010,12,14,12,52,3.30
2010,12,14,12,53,3.20
2010,12,14,12,54,3.20
2010,12,14,12,55,3.20
2010,12,14,12,56,3.20
2010,12,14,12,57,3.20
2010,12,14,12,58,3.20
2010,12,14,12,59,3.20
2010,12,14,13,00,3.20
2010,12,14,13,01,3.20
2010,12,14,13,02,3.20
2010,12,14,13,03,3.20
2010,12,14,13,04,3.20
2010,12,14,13,05,3.20
2010,12,14,13,06,3.20
2010,12,14,13,07,3.20
2010,12,14,13,08,3.30
2010,12,14,13,09,3.30
2010,12,14,13,10,3.30
2010,12,14,13,11,3.30
2010,12,14,13,12,3.30
2010,12,14,13,13,3.30
2010,12,14,13,14,3.40
2010,12,14,13,15,3.40
2010,12,14,13,16,3.40
2010,12,14,13,17,3.40
2010,12,14,13,18,3.50
2010,12,14,13,19,3.50
2010,12,14,13,20,3.50
2010,12,14,13,21,3.60
2010,12,14,13,22,3.60
2010,12,14,13,23,3.60
2010,12,14,13,24,3.60
2010,12,14,13,25,3.60
2010,12,14,13,26,3.60
2010,12,14,13,27,3.60
2010,12,14,13,28,3.60
2010,12,14,13,29,3.60
2010,12,14,13,30,3.50
2010,12,14,13,31,3.50
2010,12,14,13,32,3.50
2010,12,14,13,33,3.40
2010,12,14,13,34,3.40
2010,12,14,13,35,3.40
2010,12,14,13,36,3.40
2010,12,14,13,37,3.40
2010,12,14,13,38,3.40
2010,12,14,13,39,3.40
2010,12,14,13,40,3.40
2010,12,14,13,41,3.40
2010,12,14,13,42,3.50
2010,12,14,13,43,3.50
2010,12,14,13,44,3.50
2010,12,14,13,45,3.50
2010,12,14,13,46,3.60
2010,12,14,13,47,3.60
2010,12,14,13,48,3.60
2010,12,14,13,49,3.60
2010,12,14,13,50,3.60
2010,12,14,13,51,3.70
2010,12,14,13,52,3.70
2010,12,14,13,53,3.70
2010,12,14,13,54,3.70
2010,12,14,13,55,3.70
2010,12,14,13,56,3.70
2010,12,14,13,57,3.70
2010,12,14,13,58,3.70
2010,12,14,13,59,3.70
2010,12,14,14,00,3.70
2010,12,14,14,01,3.70
2010,12,14,14,02,3.70
2010,12,14,14,03,3.70
2010,12,14,14,04,3.70
2010,12,14,14,05,3.70
2010,12,14,14,06,3.70
2010,12,14,14,07,3.70
2010,12,14,14,08,3.70
2010,12,14,14,09,3.70
2010,12,14,14,10,3.70
2010,12,14,14,11,3.80
2010,12,14,14,12,3.80
2010,12,14,14,13,3.80
2010,12,14,14,14,3.80
2010,12,14,14,15,3.80
2010,12,14,14,16,3.80
2010,12,14,14,17,3.80
2010,12,14,14,18,3.80
2010,12,14,14,19,3.80
2010,12,14,14,20,3.80
2010,12,14,14,21,3.90
2010,12,14,14,22,3.90
2010,12,14,14,23,3.90
2010,12,14,14,24,3.90
2010,12,14,14,25,3.90
2010,12,14,14,26,4.00
2010,12,14,14,27,4.00
2010,12,14,14,28,4.00
2010,12,14,14,29,4.10
2010,12,14,14,30,4.10
2010,12,14,14,31,4.20
2010,12,14,14,32,4.20
2010,12,14,14,33,4.20
2010,12,14,14,34,4.30
2010,12,14,14,35,4.30
2010,12,14,14,36,4.30
2010,12,14,14,37,4.30
2010,12,14,14,38,4.30
2010,12,14,14,39,4.40
2010,12,14,14,40,4.40
2010,12,14,14,41,4.40
2010,12,14,14,42,4.40
2010,12,14,14,43,4.40
2010,12,14,14,44,4.40
2010,12,14,14,45,4.40
2010,12,14,14,46,4.40
2010,12,14,14,47,4.40
2010,12,14,14,48,4.40
2010,12,14,14,49,4.40
2010,12,14,14,50,4.40
2010,12,14,14,51,4.40
2010,12,14,14,52,4.40
2010,12,14,14,53,4.40
2010,12,14,14,54,4.40
2010,12,14,14,55,4.40
2010,12,14,14,56,4.40
2010,12,14,14,57,4.40
2010,12,14,14,58,4.40
2010,12,14,14,59,4.40
2010,12,14,15,00,4.40
2010,12,14,15,01,4.40
2010,12,14,15,02,4.40
2010,12,14,15,03,4.40
2010,12,14,15,04,4.40
2010,12,14,15,05,4.40
2010,12,14,15,06,4.50
2010,12,14,15,07,4.50
2010,12,14,15,08,4.50
2010,12,14,15,09,4.50
2010,12,14,15,10,4.50
2010,12,14,15,11,4.50
2010,12,14,15,12,4.40
2010,12,14,15,13,4.40
2010,12,14,15,14,4.40
2010,12,14,15,15,4.40
2010,12,14,15,16,4.40
2010,12,14,15,17,4.40
2010,12,14,15,18,4.40
2010,12,14,15,19,4.40
2010,12,14,15,20,4.40
2010,12,14,15,21,4.40
2010,12,14,15,22,4.40
2010,12,14,15,23,4.40
2010,12,14,15,24,4.40
2010,12,14,15,25,4.40
2010,12,14,15,26,4.40
2010,12,14,15,27,4.40
2010,12,14,15,28,4.40
2010,12,14,15,29,4.50
2010,12,14,15,30,4.50
2010,12,14,15,31,4.50
2010,12,14,15,32,4.50
2010,12,14,15,33,4.60
2010,12,14,15,34,4.60
2010,12,14,15,35,4.60
2010,12,14,15,36,4.60
2010,12,14,15,37,4.70
2010,12,14,15,38,4.70
2010,12,14,15,39,4.70
2010,12,14,15,40,4.70
2010,12,14,15,41,4.70
2010,12,14,15,42,4.70
2010,12,14,15,43,4.70
2010,12,14,15,44,4.70
2010,12,14,15,45,4.70
2010,12,14,15,46,4.70
2010,12,14,15,47,4.70
2010,12,14,15,48,4.70
2010,12,14,15,49,4.70
2010,12,14,15,50,4.70
2010,12,14,15,51,4.70
2010,12,14,15,52,4.70
2010,12,14,15,53,4.70
2010,12,14,15,54,4.70
2010,12,14,15,55,4.70
2010,12,14,15,56,4.70
2010,12,14,15,57,4.70
2010,12,14,15,58,4.70
2010,12,14,15,59,4.70
2010,12,14,16,00,4.70
2010,12,14,16,01,4.70
2010,12,14,16,02,4.70
2010,12,14,16,03,4.70
2010,12,14,16,04,4.70
2010,12,14,16,05,4.70
2010,12,14,16,06,4.70
2010,12,14,16,07,4.70
2010,12,14,16,08,4.70
2010,12,14,16,09,4.70
2010,12,14,16,10,4.70
2010,12,14,16,11,4.70
2010,12,14,16,12,4.70
2010,12,14,16,13,4.70
2010,12,14,16,14,4.70
2010,12,14,16,15,4.70
2010,12,14,16,16,4.70
2010,12,14,16,17,4.70
2010,12,14,16,18,4.70
2010,12,14,16,19,4.70
2010,12,14,16,20,4.70
2010,12,14,16,21,4.70
2010,12,14,16,22,4.70
2010,12,14,16,23,4.70
2010,12,14,16,24,4.70
2010,12,14,16,25,4.70
2010,12,14,16,26,4.70
2010,12,14,16,27,4.70
2010,12,14,16,28,4.80
2010,12,14,16,29,4.80
2010,12,14,16,30,4.80
2010,12,14,16,31,4.80
2010,12,14,16,32,4.80
2010,12,14,16,33,4.80
2010,12,14,16,34,4.80
2010,12,14,16,35,4.80
2010,12,14,16,36,4.80
2010,12,14,16,37,4.80
2010,12,14,16,38,4.80
2010,12,14,16,39,4.80
2010,12,14,16,40,4.80
2010,12,14,16,41,4.80
2010,12,14,16,42,4.70
2010,12,14,16,43,4.70
2010,12,14,16,44,4.70
2010,12,14,16,45,4.70
2010,12,14,16,46,4.70
2010,12,14,16,47,4.70
2010,12,14,16,48,4.70
2010,12,14,16,49,4.70
2010,12,14,16,50,4.70
2010,12,14,16,51,4.70
2010,12,14,16,52,4.70
2010,12,14,16,53,4.70
2010,12,14,16,54,4.70
2010,12,14,16,55,4.70
2010,12,14,16,56,4.70
2010,12,14,16,57,4.70
2010,12,14,16,58,4.70
2010,12,14,16,59,4.60
2010,12,14,17,00,4.60
2010,12,14,17,01,4.60
2010,12,14,17,02,4.60
2010,12,14,17,03,4.60
2010,12,14,17,04,4.60
2010,12,14,17,05,4.70
2010,12,14,17,06,4.70
2010,12,14,17,07,4.70
2010,12,14,17,08,4.70
2010,12,14,17,09,4.70
2010,12,14,17,10,4.70
2010,12,14,17,11,4.70
2010,12,14,17,12,4.70
2010,12,14,17,13,4.70
2010,12,14,17,14,4.70
2010,12,14,17,15,4.70
2010,12,14,17,16,4.80
2010,12,14,17,17,4.80
2010,12,14,17,18,4.80
2010,12,14,17,19,4.80
2010,12,14,17,20,4.80
2010,12,14,17,21,4.80
2010,12,14,17,22,4.90
2010,12,14,17,23,4.90
2010,12,14,17,24,4.90
2010,12,14,17,25,4.90
2010,12,14,17,26,4.90
2010,12,14,17,27,5.00
2010,12,14,17,28,5.00
2010,12,14,17,29,5.00
2010,12,14,17,30,5.00
2010,12,14,17,31,5.10
2010,12,14,17,32,5.10
2010,12,14,17,33,5.10
2010,12,14,17,34,5.10
2010,12,14,17,35,5.10
2010,12,14,17,36,5.10
2010,12,14,17,37,5.10
2010,12,14,17,38,5.10
2010,12,14,17,39,5.10
2010,12,14,17,40,5.10
2010,12,14,17,41,5.10
2010,12,14,17,42,5.10
2010,12,14,17,43,5.10
2010,12,14,17,44,5.10
2010,12,14,17,45,5.10
2010,12,14,17,46,5.10
2010,12,14,17,47,5.10
2010,12,14,17,48,5.10
2010,12,14,17,49,5.10
2010,12,14,17,50,5.10
2010,12,14,17,51,5.10
2010,12,14,17,52,5.00
2010,12,14,17,53,5.00
2010,12,14,17,54,5.00
2010,12,14,17,55,5.00
2010,12,14,17,56,5.00
2010,12,14,17,57,5.00
2010,12,14,17,58,4.90
2010,12,14,17,59,4.90
2010,12,14,18,00,4.90
2010,12,14,18,01,4.90
2010,12,14,18,02,4.90
2010,12,14,18,03,4.90
2010,12,14,18,04,4.90
2010,12,14,18,05,4.90
2010,12,14,18,06,4.90